Location: Petruro
(41.0333°N, 14.7833°E)
Time: 08:04:03
(UTC+00:00)

Meteor 1-26 Rocket - Pass Details

Date: 20 June 2021
Orbit: 807 x 928 km, 81.3° (Epoch: 26 July)

Event Time Altitude Azimuth Distance (km) Brightness Sun altitude
Rises 01:49:17 0° 346° (NNW) 3,498 8.0 -14.8°
Reaches altitude 10° 01:51:44 10° 343° (NNW) 2,571 7.2 -14.5°
Maximum altitude 01:57:31 61° 265° (W) 1,028 4.4 -13.8°
Enters shadow 02:03:12 11° 187° (S) 2,542 6.2 -13.1°
